Regional Weather Roundup
Issued by NWS

Home | Current Version | Previous Version | Graphics & Text | Print | Product List | Glossary On
Versions: 1 2 3 4 5 6 7 8 9 10 11 12 13 14 15 16 17 18 19 20 21 22 23 24 25 26 27 28
000
ASUS45 KCYS 291910
RWRWY

WYOMING REGIONAL WEATHER ROUNDUP
NATIONAL WEATHER SERVICE CHEYENNE WY
100 PM MDT SUN MAY 29 2016

NOTE:  "FAIR" INDICATES FEW OR NO CLOUDS BELOW 12,000 FEET
WITH NO SIGNIFICANT WEATHER AND/OR OBSTRUCTIONS TO VISIBILITY.

WYZ001-292000-
YELLOWSTONE NATIONAL PARK

CITY           SKY/WX    TMP DP  RH WIND       PRES   REMARKS
LK YELLOWSTONE   N/A     56  22  26 W8        30.23S
W YELLOWSTONE  NOT AVBL

$$
WYZ002>013-054>058-071-098>099-292000-
NORTHERN WYOMING

CITY           SKY/WX    TMP DP  RH WIND       PRES   REMARKS
JACKSON        MOSUNNY   64  32  29 S12       30.16F
CODY           FAIR      68  34  28 S6        30.06F
GREYBULL       FAIR      72  36  26 S10       30.03F
WORLAND        FAIR      72  33  24 MISG      30.05F
SHERIDAN       FAIR      74  39  28 E9        30.04F
BUFFALO        FAIR      68  45  43 S15G21    30.09F
GILLETTE       FAIR      71  44  37 S10       30.07F
HULETT         MOCLDY    70  43  37 N9        30.08S
NEWCASTLE      FAIR      72  39  30 S9G21     30.09F

$$
WYZ014>020-022>026-101>103-292000-
CENTRAL WYOMING

CITY           SKY/WX    TMP DP  RH WIND       PRES   REMARKS
BIG PINEY      FAIR      63  31  30 S12G17    30.22F
PINEDALE       NOT AVBL
DUBOIS         MOCLDY    61  23  23 W12G25    30.16F
LANDER         FAIR      68  31  25 VRB5      30.10F
RIVERTON       FAIR      69  26  20 VRB3      30.13F
CASPER         FAIR      69  32  25 MISG      30.12F
DOUGLAS          N/A    N/A N/A N/A MISG      30.10F

$$
WYZ021-027>030-104>119-292000-
SOUTHERN WYOMING

CITY           SKY/WX    TMP DP  RH WIND       PRES   REMARKS
EVANSTON       FAIR      65  34  31 W12       30.20F
KEMMERER         N/A     63  32  31 SW7       30.23F
FORT BRIDGER   CLEAR     64  34  32 N7        30.24F
ROCK SPRINGS   FAIR      63  29  27 SW3       30.21F
DIXON          FAIR      68  38  33 NW8       30.22F
RAWLINS        FAIR      66  31  27 SW12G22   30.21F
SARATOGA       FAIR      68  34  28 W9G22     30.22F
LARAMIE        PTSUNNY   64  30  27 NE5       30.20F
CHEYENNE       PTSUNNY   69  35  28 SW7       30.16F
TORRINGTON     FAIR      76  38  25 VRB3      30.07F
PINE BLUFFS    FAIR      73  36  25 S9        30.13F

$$




USA.gov is the U.S. government's official web portal to all federal, state and local government web resources and services.